Location: Bergnershof
(48.9468°N, 10.9431°E)
Time: 00:08:12
(UTC+00:00)

Resurs 01 Rocket - Pass Details

Date: 03 March 2021
Orbit: 635 x 643 km, 98.0° (Epoch: 13 April)

Event Time Altitude Azimuth Distance (km) Brightness Sun altitude
Exits shadow 19:12:41 36° 40° (NE) 1,005 2.4 -21.9°
Drops below altitude 10° 19:15:59 10° 359° (N) 2,036 4.4 -22.4°
Sets 19:18:17 0° 353° (N) 2,950 5.4 -22.8°
